Location: Martin Dies, Jr. State Park
(30.8429°N, 94.1720°W)
Time: 05:28:45
(UTC-06:00)

Hubble Space Telescope - Visible Passes

Search period start: 22 November 2019 00:00
Search period end: 02 December 2019 00:00
Orbit: 536 x 540 km, 28.5° (Epoch: 21 November)

Date Brightness Start Highest point End Pass type
(mag) Time Alt. Az. Time Alt. Az. Time Alt. Az.
22 Nov 1.2 17:52:11 10° WSW 17:56:13 55° S 18:00:06 11° E visible
22 Nov 2.6 19:33:13 10° W 19:35:26 30° WSW 19:35:26 30° WSW visible
23 Nov 1.2 17:41:33 10° WSW 17:45:37 59° S 17:49:41 10° E visible
23 Nov 2.0 19:22:38 10° W 19:25:30 39° WSW 19:25:30 39° WSW visible
24 Nov 1.5 19:12:04 10° W 19:15:37 47° SSW 19:15:37 47° SSW visible
25 Nov 1.5 19:01:31 10° W 19:05:26 44° SSW 19:05:48 42° S visible
26 Nov 1.9 18:50:59 10° W 18:54:49 38° SSW 18:56:04 30° SSE visible
27 Nov 2.2 18:40:29 10° W 18:44:11 32° SSW 18:46:27 19° SE visible
28 Nov 2.6 18:30:01 10° WSW 18:33:32 27° SSW 18:36:57 10° SE visible
29 Nov 2.9 18:19:38 10° WSW 18:22:52 22° SSW 18:26:06 10° SSE visible
30 Nov 3.3 18:09:20 10° WSW 18:12:11 18° SSW 18:15:03 10° SSE visible
01 Dec 3.5 17:59:13 10° WSW 18:01:31 15° SSW 18:03:48 10° S visible
